[[{"header":{"parameterUnit":"m.s-1","parameterCategory":2,"la1":30.2991,"la2":30.254,"lo1":-89.0895,"lo2":-89.0444,"dy":0.0017,"dx":0.0017,"nx":28,"ny":28,"refTime":"2025-05-21T03:00:00:Z","depth":"0","parameterNumber":2,"parameterNumberName":"U-component_of_CURRENTS"},"data":[0,0,0,0,0,0,0,0,0,0,0,0,0,0,0,0,0,0,0,0,0,0,0,0,0,0,0,0,0,0,0,0,0,0,0,0,0,0,0,0,0,0,0,0,0,0,0,0,0,0,0,0,0,0,0,0,0,0,0.2306,0.2306,0,0.2328,0.2328,0.2328,0.235,0.2351,0.2351,0.2351,0.2444,0.2446,0.2448,0,0,0,0,0,0,0,0,0,0,0,0,0,0.229,0.229,0.2306,0.2306,0.2306,0.2328,0.2328,0.2328,0.235,0.2351,0.2351,0.2351,0.2443,0.2446,0.2449,0,0,0,0,0,0,0,0,0,0,0,0,0,0.2303,0.229,0.2306,0.2319,0.2321,0.2328,0.2328,0.2328,0.235,0.2351,0.2351,0.2351,0.2442,0.2446,0.2449,0.2462,0,0,0.2459,0.2461,0,0,0,0,0,0,0,0,0.2302,0.2304,0.2317,0.2318,0.232,0.2336,0.2356,0.2377,0.235,0.234,0.2351,0.2352,0.2414,0.242,0.2423,0.2467,0.2471,0.246,0.2462,0.2463,0.2464,0,0,0,0,0,0,0,0.2301,0.2303,0.2315,0.2317,0.2319,0.2327,0.2329,0.236,0.2376,0.2341,0.2342,0.2344,0.2415,0.2419,0.2425,0.2472,0.246,0.2463,0.2465,0.2466,0.2583,0.2584,0,0,0,0,0,0,0.2297,0.2302,0.2314,0.2316,0.2311,0.2327,0.2329,0.2331,0.2374,0.2381,0.2343,0.2345,0.2413,0.2421,0.2429,0.2493,0.2463,0.2466,0.2468,0.2582,0.2583,0.2584,0,0,0,0,0,0,0.2296,0.2298,0.2313,0.2309,0.2311,0.2326,0.2328,0.2331,0.2338,0.2375,0.2383,0.2347,0.2414,0.2424,0.2467,0.2495,0.2468,0.2471,0.258,0.2582,0.2583,0.2592,0,0,0,0,0,0,0.2296,0.2297,0.2299,0.2309,0.2311,0.2331,0.2328,0.2331,0.2338,0.234,0.2382,0.239,0.2415,0.2462,0.247,0.2499,0.2473,0.2579,0.2581,0.2583,0.2591,0.2594,0.2597,0,0,0,0,0,0.2295,0.2302,0.2299,0.23,0.2312,0.2332,0.2335,0.2347,0.2338,0.2351,0.2375,0.2389,0.2481,0.2465,0.2475,0.2506,0.2578,0.258,0.2583,0.2589,0.2593,0.2597,0,0,0,0,0,0,0.229,0.2305,0.2302,0.231,0.2324,0.2336,0.2346,0.2345,0.237,0.2372,0.2399,0.2411,0.2469,0.2479,0.246,0.2545,0.2533,0.2538,0.2535,0.2539,0.2542,0.2544,0.2476,0,0,0,0,0,0.2288,0.2304,0.2312,0.232,0.2325,0.2331,0.2338,0.2345,0.2365,0.2375,0.2402,0.2436,0.2485,0.2503,0.2549,0.2582,0.2619,0.2609,0.2612,0.2615,0.2623,0.2708,0.272,0.2592,0.2592,0.2592,0,0,0.229,0.2299,0.2308,0.2322,0.2329,0.2338,0.2337,0.2352,0.2364,0.2383,0.2414,0.2456,0.2499,0.2552,0.2577,0.2562,0.267,0.2618,0.262,0.2627,0.2712,0.2724,0.2735,0.2594,0.2593,0.2593,0,0,0.23,0.2306,0.232,0.233,0.2343,0.2348,0.235,0.2364,0.2379,0.2406,0.2439,0.2492,0.2537,0.2587,0.2614,0.2658,0.2694,0.267,0.2677,0.2759,0.277,0.2781,0.2838,0.2854,0.2659,0.2659,0.2659,0,0.2303,0.2313,0.2327,0.2337,0.2346,0.235,0.2359,0.2374,0.2402,0.2423,0.2419,0.2518,0.2558,0.2635,0.2656,0.2668,0.271,0.2657,0.2764,0.2775,0.2786,0.2842,0.2859,0.266,0.266,0.266,0.266,0,0.2315,0.2325,0.2335,0.2349,0.236,0.2375,0.2388,0.2406,0.2413,0.2432,0.2505,0.2559,0.2617,0.2644,0.2664,0.2761,0.2766,0.2768,0.2753,0.2799,0.2855,0.2873,0.2661,0.2661,0.266,0.266,0,0,0.2327,0.2343,0.2345,0.235,0.2369,0.2377,0.2401,0.2432,0.245,0.2488,0.2533,0.262,0.2647,0.2681,0.2722,0.2788,0.2903,0.2807,0.2811,0.2861,0.3076,0.2966,0.2974,0.2927,0.2931,0.2933,0.3083,0,0.2336,0.2349,0.2358,0.2373,0.2381,0.2396,0.2416,0.2445,0.2474,0.252,0.2586,0.2649,0.266,0.27,0.277,0.2887,0.2951,0.2861,0.3026,0.3031,0.2926,0.2992,0.28,0.2907,0.31,0.3103,0.3105,0,0.2346,0.2354,0.2366,0.2384,0.2389,0.2394,0.2428,0.2448,0.2513,0.2542,0.2607,0.266,0.2777,0.2773,0.2969,0.2913,0.2996,0.3067,0.3075,0.2982,0.2953,0.2895,0.2932,0.2828,0.3133,0.313,0.3128,0,0.2345,0.2363,0.2371,0.2377,0.2394,0.2404,0.2412,0.2456,0.2478,0.2565,0.26,0.2722,0.2797,0.2926,0.305,0.3035,0.3252,0.3248,0.3221,0.3214,0.3086,0.3061,0.3039,0.3384,0.3384,0.3384,0.3383,0,0.2358,0.2369,0.2367,0.2371,0.2379,0.2392,0.2411,0.2439,0.2488,0.2525,0.261,0.2675,0.2844,0.2969,0.3079,0.3194,0.3277,0.3241,0.3254,0.308,0.3054,0.2985,0.2972,0.3389,0.3388,0.3387,0.3386,0,0.2374,0.237,0.2379,0.2383,0.2378,0.2384,0.2391,0.2407,0.2455,0.2512,0.2546,0.268,0.2839,0.2974,0.3194,0.3217,0.3244,0.3362,0.3126,0.3107,0.2949,0.2944,0.2868,0.2811,0.3369,0.3367,0.3366,0,0.2389,0.2391,0.2379,0.2369,0.2371,0.237,0.2367,0.2391,0.2407,0.2511,0.2544,0.2698,0.2784,0.3021,0.3113,0.3255,0.3191,0.3139,0.3066,0.292,0.2928,0.2818,0.2769,0.2914,0.2909,0.2905,0.2902,0,0.2421,0.241,0.2412,0.2379,0.2364,0.2343,0.2339,0.2341,0.238,0.2426,0.2505,0.2581,0.2761,0.2802,0.294,0.3014,0.2936,0.3055,0.2985,0.2633,0.2437,0.2392,0.2829,0.2865,0.2869,0.2872,0.2874,0.2875,0.2448,0.2444,0.242,0.2389,0.2361,0.2306,0.2272,0.2274,0.2276,0.2293,0.2411,0.2434,0.25,0.2662,0.2719,0.2629,0.2717,0.2553,0.2585,0.2505,0.2352,0.2683,0.2672,0.2675,0.2677,0.2679,0.268,0,0.2454,0.244,0.2423,0.2359,0.2299,0.2285,0.2243,0.2191,0.2163,0.2171,0.22,0.2158,0.2159,0.2217,0.2199,0.2151,0.2089,0.2113,0.1928,0.1932,0.2295,0.2171,0.1949,0.1949,0.195,0.195,0.195,0.195,0.2465,0.243,0.2404,0.23,0.2247,0.2143,0.2099,0.2034,0.2001,0.1885,0.1801,0.1807,0.1856,0.1837,0.1771,0.1756,0.1678,0.1565,0.1669,0.1918,0.196,0.2001,0.1878,0.1599,0.1599,0.1156,0.1153,0.1151]},{"header":{"parameterUnit":"m.s-1","parameterCategory":2,"la1":30.2991,"la2":30.254,"lo1":-89.0895,"lo2":-89.0444,"dy":0.0017,"dx":0.0017,"nx":28,"ny":28,"refTime":"2025-05-21T03:00:00:Z","depth":"0","parameterNumber":3,"parameterNumberName":"V-component_of_CURRENTS"},"data":[0,0,0,0,0,0,0,0,0,0,0,0,0,0,0,0,0,0,0,0,0,0,0,0,0,0,0,0,0,0,0,0,0,0,0,0,0,0,0,0,0,0,0,0,0,0,0,0,0,0,0,0,0,0,0,0,0,0,0.0992,0.0992,0,0.0973,0.0973,0.0973,0.095,0.095,0.0949,0.0949,0.0869,0.0867,0.0865,0,0,0,0,0,0,0,0,0,0,0,0,0,0.0982,0.0982,0.0992,0.0992,0.0992,0.0973,0.0973,0.0973,0.095,0.095,0.0949,0.0949,0.0869,0.0867,0.0865,0,0,0,0,0,0,0,0,0,0,0,0,0,0.0977,0.0982,0.0992,0.0978,0.0977,0.0973,0.0973,0.0972,0.095,0.095,0.0949,0.0948,0.087,0.0868,0.0865,0.0859,0,0,0.0857,0.0855,0,0,0,0,0,0,0,0,0.0977,0.0978,0.0981,0.0979,0.0978,0.0963,0.094,0.0931,0.095,0.096,0.0949,0.0948,0.0895,0.089,0.0889,0.0855,0.0852,0.0856,0.0855,0.0854,0.0853,0,0,0,0,0,0,0,0.0978,0.0978,0.0985,0.098,0.0978,0.0963,0.0962,0.0938,0.093,0.0959,0.0958,0.0955,0.0894,0.0892,0.0887,0.0851,0.0856,0.0854,0.0852,0.0851,0.0803,0.0803,0,0,0,0,0,0,0.0982,0.0979,0.0985,0.0984,0.0976,0.0964,0.0963,0.0968,0.0932,0.0926,0.0956,0.0954,0.0897,0.089,0.0884,0.0895,0.0854,0.0851,0.085,0.0803,0.0803,0.0804,0,0,0,0,0,0,0.0982,0.0983,0.0986,0.098,0.0979,0.0965,0.0971,0.0968,0.0966,0.093,0.0923,0.0956,0.0896,0.0887,0.0873,0.0891,0.085,0.0847,0.0802,0.0803,0.0803,0.0905,0,0,0,0,0,0,0.0982,0.0984,0.0992,0.0981,0.098,0.0996,0.0972,0.0968,0.0965,0.0963,0.0927,0.0919,0.0895,0.0878,0.0871,0.0887,0.0845,0.0802,0.0803,0.0803,0.0901,0.0909,0.0915,0,0,0,0,0,0.0982,0.0994,0.0993,0.0994,0.0992,0.0997,0.0995,0.0982,0.0966,0.0975,0.095,0.092,0.0876,0.0876,0.0868,0.0883,0.0802,0.0802,0.0803,0.0898,0.0907,0.0915,0,0,0,0,0,0,0.0985,0.0992,0.0991,0.1003,0.1006,0.0993,0.0997,0.0985,0.0974,0.0969,0.093,0.0921,0.0914,0.0881,0.0882,0.0868,0.0831,0.0831,0.0906,0.0915,0.0922,0.0936,0.0843,0,0,0,0,0,0.0993,0.1012,0.1009,0.1021,0.1023,0.1011,0.101,0.1004,0.099,0.0985,0.0962,0.0932,0.0911,0.0899,0.0876,0.0871,0.0837,0.0871,0.0879,0.0885,0.089,0.0861,0.0866,0.0806,0.0806,0.0806,0,0,0.0998,0.1004,0.1014,0.1024,0.1023,0.1034,0.1009,0.1015,0.1027,0.0976,0.0984,0.0957,0.0914,0.0915,0.0907,0.089,0.0884,0.0886,0.0892,0.0893,0.0862,0.0868,0.0873,0.0806,0.0806,0.0806,0,0,0.1015,0.1022,0.1043,0.1051,0.1058,0.1054,0.1057,0.1053,0.1055,0.1058,0.1026,0.1015,0.0979,0.0966,0.0948,0.0976,0.0923,0.0959,0.101,0.0983,0.0988,0.0992,0.0961,0.0962,0.0963,0.0964,0.0964,0,0.1018,0.1046,0.1048,0.1068,0.1079,0.1064,0.1086,0.1087,0.1081,0.109,0.107,0.1033,0.1006,0.1003,0.1019,0.0996,0.0964,0.0987,0.0994,0.0997,0.1,0.0967,0.0966,0.0969,0.0968,0.0967,0.0967,0,0.105,0.1075,0.1086,0.1112,0.1124,0.1142,0.1145,0.1158,0.1151,0.1152,0.1153,0.1119,0.1096,0.1087,0.1064,0.107,0.1037,0.101,0.098,0.1013,0.0975,0.0973,0.0976,0.0974,0.0972,0.0971,0,0,0.1053,0.1101,0.1106,0.1131,0.1152,0.1165,0.1192,0.1215,0.1235,0.1224,0.1248,0.1219,0.12,0.1179,0.1146,0.1128,0.1129,0.1084,0.1081,0.1066,0.1063,0.1056,0.1051,0.1102,0.1102,0.1102,0.1033,0,0.1078,0.1125,0.1146,0.1193,0.1216,0.1228,0.126,0.1279,0.1285,0.1307,0.1279,0.1283,0.1233,0.1231,0.1206,0.1159,0.1125,0.115,0.1022,0.1018,0.1018,0.105,0.1013,0.095,0.103,0.1029,0.1029,0,0.1099,0.1132,0.1179,0.1243,0.1256,0.1281,0.1327,0.1356,0.1382,0.1391,0.1384,0.1363,0.1354,0.1298,0.1218,0.1235,0.1154,0.1103,0.1098,0.1054,0.1006,0.0926,0.0941,0.0856,0.1024,0.1025,0.1025,0,0.1088,0.1156,0.1196,0.1214,0.1277,0.1306,0.134,0.1376,0.1409,0.1443,0.1469,0.1439,0.1437,0.1341,0.1249,0.1231,0.1153,0.1109,0.1013,0.101,0.0936,0.0927,0.0863,0.1025,0.1025,0.1026,0.1026,0,0.1099,0.1133,0.1195,0.1214,0.1271,0.1316,0.1372,0.1405,0.1458,0.1508,0.1506,0.1535,0.1448,0.1398,0.128,0.1159,0.1169,0.103,0.0998,0.097,0.0966,0.0851,0.0832,0.1023,0.1023,0.1024,0.1024,0,0.1073,0.1114,0.1162,0.1236,0.1261,0.1298,0.1387,0.1432,0.1487,0.1551,0.157,0.161,0.1569,0.146,0.133,0.1212,0.1046,0.1024,0.1004,0.0972,0.0808,0.0797,0.0741,0.073,0.091,0.091,0.0909,0,0.1062,0.1081,0.1157,0.1189,0.1222,0.1288,0.134,0.1424,0.1477,0.1594,0.1629,0.1644,0.1656,0.149,0.1301,0.1103,0.1028,0.0927,0.0885,0.0808,0.077,0.0786,0.0782,0.0816,0.0815,0.0814,0.0814,0,0.1038,0.1059,0.1099,0.1161,0.1218,0.1294,0.1378,0.1429,0.1541,0.1618,0.1724,0.1757,0.1639,0.147,0.1232,0.1085,0.0905,0.0901,0.0817,0.07,0.0715,0.0686,0.0855,0.0805,0.0806,0.0807,0.0807,0.0807,0.1008,0.1029,0.1077,0.1137,0.1209,0.1301,0.136,0.1468,0.1577,0.1708,0.1765,0.1807,0.1582,0.1279,0.1112,0.0779,0.0842,0.0649,0.0642,0.0665,0.0662,0.0827,0.0751,0.0751,0.0752,0.0752,0.0752,0,0.0958,0.0999,0.1057,0.1135,0.1205,0.1258,0.1387,0.1463,0.1594,0.1707,0.1806,0.1675,0.1397,0.1112,0.0686,0.0519,0.0495,0.0442,0.043,0.0439,0.0554,0.0556,0.0441,0.0441,0.0441,0.0441,0.0441,0.0441,0.0937,0.0962,0.1005,0.1106,0.1172,0.127,0.1344,0.1479,0.1577,0.1684,0.1672,0.1684,0.146,0.0809,0.0385,0.0298,0.0244,0.024,0.0244,0.0276,0.0294,0.0311,0.0306,0.014,0.014,0.0125,0.0124,0.0124]}],[{"header":{"parameterUnit":"m.s-1","parameterCategory":2,"la1":30.2991,"la2":30.254,"lo1":-89.0895,"lo2":-89.0444,"dy":0.0017,"dx":0.0017,"nx":28,"ny":28,"refTime":"2025-05-21T03:00:00:Z","depth":"2","parameterNumber":2,"parameterNumberName":"U-component_of_CURRENTS"},"data":[0,0,0,0,0,0,0,0,0,0,0,0,0,0,0,0,0,0,0,0,0,0,0,0,0,0,0,0,0,0,0,0,0,0,0,0,0,0,0,0,0,0,0,0,0,0,0,0,0,0,0,0,0,0,0,0,0,0,0.158,0.1582,0,0.1716,0.1717,0.1718,0.172,0.1719,0.1718,0.1717,0.1619,0.1617,0.1616,0,0,0,0,0,0,0,0,0,0,0,0,0,0.1409,0.1411,0.158,0.1582,0.1585,0.1716,0.1717,0.1718,0.172,0.1718,0.1717,0.1716,0.1619,0.1617,0.1615,0,0,0,0,0,0,0,0,0,0,0,0,0,0.15,0.1412,0.1579,0.1607,0.1611,0.1716,0.1717,0.1719,0.172,0.1718,0.1717,0.1715,0.162,0.1618,0.1615,0.163,0,0,0.1608,0.1606,0,0,0,0,0,0,0,0,0.1495,0.1506,0.16,0.1605,0.161,0.1706,0.1622,0.168,0.172,0.167,0.1717,0.1715,0.1632,0.1629,0.165,0.1626,0.1622,0.1607,0.1606,0.1605,0.1604,0,0,0,0,0,0,0,0.1489,0.15,0.1626,0.1603,0.161,0.1644,0.1653,0.1634,0.1648,0.1675,0.1677,0.1705,0.1632,0.1653,0.1647,0.162,0.1607,0.1605,0.1604,0.1603,0.1657,0.1659,0,0,0,0,0,0,0.1485,0.1494,0.1622,0.1631,0.1557,0.1648,0.1658,0.1671,0.1653,0.1654,0.1706,0.1705,0.1658,0.165,0.1644,0.1685,0.1605,0.1602,0.1601,0.1654,0.1657,0.166,0,0,0,0,0,0,0.1481,0.1494,0.1616,0.1573,0.1591,0.1653,0.1666,0.1674,0.1704,0.1682,0.1675,0.173,0.1656,0.1647,0.1658,0.168,0.1601,0.1599,0.165,0.1655,0.1659,0.1751,0,0,0,0,0,0,0.1475,0.1491,0.1513,0.1572,0.1594,0.1678,0.1669,0.1678,0.1727,0.1726,0.1699,0.1689,0.1654,0.1662,0.1655,0.1675,0.1597,0.1647,0.1652,0.1657,0.1744,0.1758,0.177,0,0,0,0,0,0.1468,0.15,0.1513,0.153,0.1616,0.168,0.1693,0.1727,0.173,0.1746,0.1748,0.169,0.1692,0.1663,0.1654,0.1673,0.1644,0.1651,0.1657,0.1738,0.1755,0.1769,0,0,0,0,0,0,0.1487,0.1506,0.152,0.1572,0.1623,0.1682,0.1726,0.174,0.1762,0.1761,0.1725,0.1716,0.1741,0.1704,0.1674,0.1712,0.1659,0.1664,0.1724,0.1739,0.1752,0.1717,0.1595,0,0,0,0,0,0.1493,0.1482,0.1546,0.1588,0.1623,0.1677,0.1715,0.173,0.1759,0.1769,0.1762,0.1757,0.1765,0.1748,0.1751,0.1759,0.1758,0.177,0.1783,0.1793,0.1765,0.1839,0.1855,0.1682,0.1682,0.1682,0,0,0.1517,0.1526,0.1529,0.1585,0.1636,0.1684,0.1693,0.1753,0.1777,0.1751,0.1791,0.1806,0.1785,0.1812,0.1816,0.1775,0.185,0.1802,0.1811,0.1775,0.1847,0.1864,0.1879,0.1686,0.1686,0.1685,0,0,0.1549,0.1573,0.1579,0.1599,0.1662,0.1707,0.1726,0.1794,0.1811,0.1857,0.1857,0.1887,0.1891,0.1887,0.1881,0.1963,0.1931,0.1972,0.198,0.2055,0.2069,0.2081,0.2125,0.214,0.1958,0.1958,0.1958,0,0.158,0.1579,0.1604,0.1616,0.1642,0.1716,0.1751,0.1792,0.185,0.1862,0.1873,0.1951,0.1922,0.196,0.1979,0.1985,0.2019,0.192,0.207,0.2082,0.2092,0.2134,0.2149,0.1963,0.1962,0.1962,0.1961,0,0.1604,0.1601,0.162,0.1638,0.1691,0.172,0.179,0.1847,0.1895,0.1915,0.1989,0.2017,0.2051,0.2062,0.2026,0.2095,0.2095,0.2096,0.2024,0.2115,0.2154,0.2168,0.1971,0.1969,0.1967,0.1966,0,0,0.1653,0.1628,0.1631,0.1609,0.168,0.1717,0.1802,0.1871,0.1902,0.1987,0.2035,0.208,0.2113,0.211,0.2123,0.2156,0.2255,0.2143,0.2144,0.2172,0.2417,0.2161,0.2152,0.23,0.2303,0.2305,0.2421,0,0.1658,0.1634,0.1647,0.1658,0.1663,0.1732,0.1774,0.1842,0.193,0.1996,0.2062,0.2112,0.213,0.2162,0.2216,0.2237,0.2295,0.2222,0.2334,0.2335,0.2086,0.2159,0.2006,0.2073,0.2435,0.2437,0.2439,0,0.1685,0.1637,0.1643,0.1592,0.1609,0.1654,0.1754,0.1808,0.1919,0.1968,0.2094,0.2143,0.2223,0.2233,0.2368,0.2331,0.2375,0.2399,0.2405,0.2126,0.2103,0.2038,0.2085,0.2462,0.246,0.2459,0.2457,0,0.1689,0.1638,0.1626,0.1611,0.1607,0.1648,0.1698,0.1811,0.1865,0.2002,0.2047,0.2178,0.2248,0.2357,0.2376,0.2407,0.2487,0.2551,0.2383,0.2367,0.2226,0.2189,0.2662,0.2661,0.2661,0.2661,0.2661,0,0.1676,0.1648,0.1614,0.1598,0.1581,0.1618,0.1687,0.1754,0.1874,0.192,0.2048,0.2109,0.2282,0.2335,0.2396,0.2381,0.2528,0.2371,0.2373,0.2252,0.2218,0.2534,0.2518,0.2665,0.2664,0.2663,0.2663,0,0.17,0.1669,0.1634,0.1598,0.1597,0.162,0.1696,0.1729,0.1838,0.1941,0.1981,0.2095,0.2148,0.2244,0.2368,0.2358,0.2385,0.2346,0.2148,0.2119,0.2241,0.2229,0.2251,0.2242,0.2235,0.2229,0.2225,0,0.1708,0.1683,0.1658,0.1651,0.1649,0.1675,0.168,0.175,0.1803,0.1906,0.1925,0.1996,0.2012,0.2047,0.2013,0.205,0.2206,0.1922,0.1927,0.2195,0.2197,0.2196,0.2193,0.1834,0.1827,0.182,0.1815,0,0.1667,0.1682,0.1621,0.1652,0.1654,0.1647,0.1672,0.1684,0.1755,0.1796,0.1817,0.1833,0.1809,0.1725,0.1675,0.169,0.1896,0.1786,0.217,0.1891,0.1791,0.1796,0.1811,0.1759,0.1765,0.1769,0.1772,0.1774,0.1635,0.1596,0.1571,0.1584,0.1598,0.1607,0.1584,0.1597,0.1607,0.1611,0.163,0.159,0.1552,0.1384,0.134,0.1329,0.1469,0.1502,0.1529,0.1561,0.1421,0.1306,0.1159,0.1161,0.1163,0.1165,0.1166,0,0.1603,0.155,0.1516,0.1516,0.1523,0.1595,0.1549,0.1506,0.1478,0.1448,0.1423,0.1202,0.1099,0.114,0.1008,0.0952,0.1043,0.0976,0.1133,0.1183,0.1229,0.1081,0.0726,0.0726,0.0725,0.0725,0,0,0.1566,0.1494,0.1446,0.1406,0.1472,0.1452,0.1419,0.1365,0.1319,0.1187,0.1128,0.1046,0.1081,0.0883,0.0819,0.0792,0.1013,0.0768,0.1109,0.1344,0.1391,0.1495,0.1314,0,0,0,0,0]},{"header":{"parameterUnit":"m.s-1","parameterCategory":2,"la1":30.2991,"la2":30.254,"lo1":-89.0895,"lo2":-89.0444,"dy":0.0017,"dx":0.0017,"nx":28,"ny":28,"refTime":"2025-05-21T03:00:00:Z","depth":"2","parameterNumber":3,"parameterNumberName":"V-component_of_CURRENTS"},"data":[0,0,0,0,0,0,0,0,0,0,0,0,0,0,0,0,0,0,0,0,0,0,0,0,0,0,0,0,0,0,0,0,0,0,0,0,0,0,0,0,0,0,0,0,0,0,0,0,0,0,0,0,0,0,0,0,0,0,0.0101,0.0102,0,0.0173,0.0174,0.0174,0.0144,0.0143,0.0142,0.0141,-0.007,-0.0074,-0.0079,0,0,0,0,0,0,0,0,0,0,0,0,0,-0.0014,-0.0013,0.0101,0.0102,0.0104,0.0173,0.0174,0.0174,0.0144,0.0143,0.0142,0.0141,-0.0068,-0.0074,-0.0079,0,0,0,0,0,0,0,0,0,0,0,0,0,0.0038,-0.0013,0.01,0.0103,0.0104,0.0173,0.0174,0.0174,0.0145,0.0143,0.0141,0.014,-0.0067,-0.0073,-0.008,-0.0091,0,0,-0.0101,-0.0104,0,0,0,0,0,0,0,0,0.0035,0.0041,0.0101,0.0103,0.0105,0.0154,0.0057,0.0074,0.0145,0.0122,0.0141,0.0139,-0.0015,-0.0026,-0.0016,-0.0101,-0.011,-0.0102,-0.0106,-0.0109,-0.0111,0,0,0,0,0,0,0,0.0031,0.0038,0.0122,0.0103,0.0105,0.0118,0.0122,0.0061,0.005,0.0123,0.0123,0.0144,-0.0018,-0.0008,-0.0022,-0.0113,-0.0102,-0.0108,-0.0112,-0.0115,-0.0253,-0.0253,0,0,0,0,0,0,0.0036,0.0035,0.012,0.0125,0.0073,0.0122,0.0126,0.0134,0.0057,0.0048,0.0145,0.0142,0.0004,-0.0013,-0.0029,-0.0034,-0.0109,-0.0116,-0.012,-0.0254,-0.0253,-0.0253,0,0,0,0,0,0,0.0033,0.0043,0.0117,0.0088,0.0099,0.0126,0.0135,0.0137,0.0159,0.0078,0.0061,0.0168,0.0002,-0.002,-0.0056,-0.0044,-0.0119,-0.0125,-0.0254,-0.0254,-0.0253,-0.0053,0,0,0,0,0,0,0.0029,0.0041,0.0062,0.0088,0.0101,0.0166,0.0137,0.0139,0.0177,0.0174,0.0092,0.007,-0.0001,-0.0044,-0.0062,-0.0054,-0.0131,-0.0255,-0.0254,-0.0253,-0.006,-0.0045,-0.0033,0,0,0,0,0,0.0025,0.0059,0.0062,0.0074,0.0125,0.0169,0.0176,0.0184,0.018,0.0197,0.0154,0.0074,-0.0054,-0.0048,-0.007,-0.0064,-0.0255,-0.0254,-0.0253,-0.0066,-0.0048,-0.0033,0,0,0,0,0,0,0.006,0.0061,0.0065,0.0109,0.0142,0.0166,0.0204,0.0205,0.0193,0.0186,0.01,0.0077,0.005,-0.0037,-0.0028,-0.0106,-0.0177,-0.018,-0.0027,-0.0011,0.0002,-0.0046,-0.0136,0,0,0,0,0,0.0072,0.006,0.0101,0.0134,0.0165,0.0189,0.0216,0.0216,0.0211,0.0208,0.016,0.009,0.0038,-0.0007,-0.0064,-0.0101,-0.0163,-0.0122,-0.0108,-0.0095,-0.0152,-0.0164,-0.0155,-0.0249,-0.0249,-0.0249,0,0,0.0097,0.0096,0.0096,0.0135,0.0169,0.0219,0.02,0.0247,0.0261,0.018,0.019,0.0149,0.0044,0.0018,-0.0009,-0.0056,-0.0093,-0.0094,-0.0082,-0.0147,-0.0162,-0.0152,-0.0144,-0.0248,-0.0249,-0.0249,0,0,0.0137,0.015,0.0163,0.0174,0.0219,0.0254,0.0274,0.0313,0.0307,0.032,0.0265,0.0238,0.0161,0.0096,0.0047,0.0091,-0.0002,0.0066,0.0077,0.0071,0.0079,0.0085,0.0067,0.0069,0.0053,0.0054,0.0054,0,0.0173,0.0175,0.0184,0.0201,0.0229,0.0276,0.0324,0.0335,0.0347,0.0328,0.0334,0.0271,0.019,0.0145,0.0138,0.0121,0.0094,0.0041,0.0093,0.0097,0.0099,0.0079,0.0079,0.0064,0.0063,0.0061,0.0061,0,0.0209,0.0213,0.0234,0.0258,0.0312,0.0343,0.0386,0.0422,0.0445,0.0423,0.0415,0.0369,0.0318,0.0296,0.0211,0.0183,0.0155,0.0142,0.0065,0.0122,0.0096,0.0093,0.0078,0.0074,0.0071,0.0069,0,0,0.0268,0.0254,0.026,0.0252,0.0323,0.0364,0.0431,0.0469,0.0485,0.0496,0.0508,0.043,0.0416,0.0354,0.0304,0.0248,0.0257,0.018,0.0175,0.0183,0.0237,0.0172,0.0162,0.0273,0.0272,0.0272,0.0231,0,0.0293,0.0303,0.0312,0.0354,0.038,0.0425,0.0458,0.0485,0.0539,0.0558,0.0509,0.0501,0.044,0.0444,0.0395,0.0284,0.0247,0.0267,0.0154,0.0149,0.0104,0.0155,0.018,0.014,0.0227,0.0226,0.0226,0,0.033,0.0314,0.0358,0.0337,0.0361,0.041,0.0508,0.0538,0.0565,0.059,0.0627,0.06,0.0538,0.0502,0.0383,0.0406,0.0309,0.0227,0.0226,0.0068,0.0076,0.0081,0.0129,0.0219,0.0219,0.022,0.022,0,0.0357,0.0344,0.0371,0.0364,0.0385,0.0422,0.047,0.0539,0.0579,0.0644,0.0688,0.0658,0.0649,0.0561,0.0378,0.0397,0.0223,0.0262,0.0124,0.012,0.0055,0.0046,0.0167,0.0167,0.0167,0.0167,0.0167,0,0.0364,0.0361,0.0365,0.0366,0.0388,0.0416,0.0501,0.0547,0.0637,0.0675,0.0704,0.074,0.065,0.0549,0.0412,0.0238,0.028,0.01,0.0097,0.0129,0.0127,0.0104,0.0097,0.0166,0.0166,0.0166,0.0167,0,0.0382,0.0381,0.0383,0.0392,0.0407,0.0437,0.0544,0.0589,0.0671,0.0768,0.0788,0.0787,0.0671,0.0543,0.0362,0.027,0.0114,0.003,0.0056,0.0054,0.0023,0.0027,-0.005,-0.0053,-0.0055,-0.0057,-0.0059,0,0.0375,0.0378,0.042,0.045,0.0462,0.0517,0.0553,0.0631,0.071,0.0781,0.0801,0.073,0.0689,0.0425,0.0232,0.0044,0.0015,-0.0072,-0.0042,-0.0008,-0.0003,0.0005,0.0012,-0.0016,-0.0018,-0.0019,-0.0019,0,0.0332,0.0371,0.0371,0.0464,0.0512,0.0574,0.064,0.0704,0.0779,0.0857,0.0881,0.085,0.061,0.0416,0.013,0.0011,-0.002,-0.0097,-0.0062,0.0019,0.0016,0.0023,0.0031,-0.0028,-0.0027,-0.0026,-0.0026,-0.0026,0.0295,0.0301,0.0354,0.043,0.0516,0.062,0.0671,0.0765,0.0868,0.0955,0.0876,0.0833,0.058,0.0236,0.0044,-0.011,-0.0108,-0.015,-0.0142,-0.0135,-0.014,-0.0149,-0.0224,-0.0224,-0.0225,-0.0225,-0.0225,0,0.0267,0.0281,0.0325,0.0437,0.0549,0.0617,0.0713,0.0789,0.0919,0.095,0.0967,0.0702,0.0474,0.0252,0.0014,-0.016,-0.0114,-0.0188,-0.0097,-0.009,-0.0084,-0.0081,-0.0152,-0.0152,-0.0152,-0.0151,0,0,0.0237,0.0262,0.028,0.0424,0.0544,0.0671,0.073,0.0879,0.0945,0.0992,0.0959,0.0764,0.0494,0.0307,0.0078,-0.0009,0.0015,-0.0013,-0.0062,0.0078,0.0089,-0.0068,-0.0059,0,0,0,0,0]}],[{"header":{"parameterUnit":"m.s-1","parameterCategory":2,"la1":30.2991,"la2":30.254,"lo1":-89.0895,"lo2":-89.0444,"dy":0.0017,"dx":0.0017,"nx":28,"ny":28,"refTime":"2025-05-21T03:00:00:Z","depth":"4","parameterNumber":2,"parameterNumberName":"U-component_of_CURRENTS"},"data":[0,0,0,0,0,0,0,0,0,0,0,0,0,0,0,0,0,0,0,0,0,0,0,0,0,0,0,0,0,0,0,0,0,0,0,0,0,0,0,0,0,0,0,0,0,0,0,0,0,0,0,0,0,0,0,0,0,0,0.0064,0.0065,0,0.0126,0.0126,0.0126,0.0203,0.0205,0.0206,0.0208,0.0274,0.0274,0.0274,0,0,0,0,0,0,0,0,0,0,0,0,0,0.0028,0.0028,0.0064,0.0065,0.0066,0.0126,0.0126,0.0127,0.0203,0.0205,0.0206,0.0208,0.0273,0.0274,0.0274,0,0,0,0,0,0,0,0,0,0,0,0,0,0.0058,0.0028,0.0063,0.0114,0.0119,0.0125,0.0126,0.0127,0.0202,0.0205,0.0207,0.0209,0.0273,0.0274,0.0274,0.0231,0,0,0.0276,0.0276,0,0,0,0,0,0,0,0,0.0057,0.0059,0.0105,0.011,0.0116,0.0162,0.0138,0.0163,0.0202,0.0167,0.0208,0.021,0.0237,0.0241,0.0242,0.0234,0.0237,0.0276,0.0276,0.0276,0.0276,0,0,0,0,0,0,0,0.0054,0.0057,0.0084,0.0106,0.0113,0.0139,0.0146,0.0143,0.0185,0.017,0.0177,0.0189,0.024,0.0241,0.0244,0.0238,0.0276,0.0276,0.0276,0.0277,0.0268,0.0268,0,0,0,0,0,0,0.005,0.0055,0.0083,0.0087,0.0096,0.0138,0.0145,0.0142,0.0186,0.0196,0.0187,0.0192,0.0239,0.0244,0.0247,0.0287,0.0276,0.0277,0.0277,0.0269,0.0268,0.0268,0,0,0,0,0,0,0.0049,0.0051,0.008,0.0076,0.0082,0.0137,0.0132,0.0142,0.0195,0.0199,0.0209,0.0236,0.0241,0.0246,0.0276,0.0287,0.0277,0.0277,0.027,0.0269,0.0268,0.031,0,0,0,0,0,0,0.0047,0.005,0.006,0.0075,0.0083,0.0108,0.0131,0.0142,0.0197,0.0206,0.0243,0.0249,0.0244,0.0275,0.0276,0.0287,0.0278,0.027,0.0269,0.0268,0.0309,0.031,0.0312,0,0,0,0,0,0.0046,0.0051,0.006,0.0065,0.0089,0.0109,0.0115,0.0159,0.0198,0.0217,0.0243,0.0251,0.0269,0.0275,0.0277,0.0289,0.0271,0.0269,0.0268,0.0308,0.031,0.0312,0,0,0,0,0,0,0.0047,0.006,0.007,0.0081,0.0104,0.0124,0.0152,0.0183,0.0218,0.0244,0.0252,0.0257,0.0282,0.0274,0.0281,0.0278,0.0267,0.0267,0.0297,0.0299,0.03,0.0311,0.0278,0,0,0,0,0,0.0047,0.0053,0.0071,0.0083,0.0098,0.0133,0.0156,0.0187,0.0214,0.0236,0.0266,0.0278,0.0266,0.028,0.0274,0.0281,0.0258,0.0284,0.0285,0.0287,0.0293,0.0249,0.0247,0.0264,0.0264,0.0264,0,0,0.005,0.006,0.0065,0.0084,0.0108,0.0126,0.0153,0.02,0.0224,0.0233,0.0292,0.0292,0.0268,0.0273,0.0282,0.0279,0.027,0.0285,0.0287,0.0293,0.0248,0.0246,0.0245,0.0263,0.0263,0.0264,0,0,0.0053,0.0072,0.0078,0.0097,0.014,0.0154,0.0179,0.0226,0.0262,0.0302,0.0302,0.0311,0.0329,0.03,0.0284,0.0286,0.0278,0.0293,0.0317,0.0274,0.0272,0.0271,0.0247,0.0243,0.0296,0.0296,0.0296,0,0.0064,0.0065,0.0086,0.0101,0.0125,0.0172,0.0193,0.022,0.0277,0.0299,0.0332,0.0335,0.0329,0.0294,0.0302,0.0291,0.0278,0.0317,0.0277,0.0275,0.0272,0.0248,0.0243,0.0298,0.0298,0.0298,0.0298,0,0.0061,0.0078,0.0091,0.0114,0.0141,0.0172,0.0208,0.0253,0.0312,0.0335,0.036,0.0349,0.0352,0.0341,0.0331,0.0304,0.0305,0.0284,0.0278,0.0274,0.0248,0.0242,0.0301,0.03,0.03,0.0299,0,0,0.0045,0.008,0.0088,0.0106,0.0158,0.0178,0.022,0.0256,0.0292,0.0343,0.0371,0.0354,0.0379,0.036,0.0343,0.0311,0.0289,0.031,0.0306,0.0296,0.0218,0.0237,0.0232,0.0272,0.0271,0.027,0.021,0,0.0044,0.0062,0.0086,0.0122,0.014,0.0192,0.0223,0.0267,0.0315,0.0355,0.0349,0.0371,0.0373,0.0389,0.0358,0.0306,0.0275,0.0308,0.0215,0.0212,0.0237,0.0226,0.0267,0.0205,0.0204,0.0203,0.0202,0,0.0031,0.0048,0.0076,0.0128,0.0144,0.0182,0.0248,0.0283,0.0329,0.0371,0.0394,0.0406,0.0384,0.0385,0.0306,0.0337,0.0291,0.0244,0.024,0.024,0.022,0.0206,0.0191,0.0192,0.0193,0.0194,0.0194,0,-0.0004,0.0043,0.0068,0.0086,0.0147,0.0192,0.0241,0.03,0.0334,0.0392,0.0422,0.0409,0.0415,0.0353,0.0287,0.0308,0.0181,0.0187,0.0151,0.0152,0.0136,0.0138,0.0115,0.0115,0.0116,0.0116,0.0116,0,-0.0026,-0.0005,0.0067,0.0079,0.0134,0.0193,0.0258,0.0308,0.0367,0.0387,0.0441,0.0422,0.0412,0.0347,0.0281,0.0201,0.0175,0.0158,0.0135,0.0156,0.016,0.0132,0.0135,0.0113,0.0114,0.0114,0.0115,0,-0.0073,-0.0033,-0.0002,0.008,0.0118,0.0167,0.0275,0.0308,0.0383,0.0408,0.0431,0.0439,0.0376,0.0328,0.0215,0.0201,0.0104,0.0068,0.0098,0.0077,0.0115,0.012,0.0064,0.0064,0.0064,0.0064,0.0064,0,-0.0093,-0.0086,-0.0007,0.003,0.0082,0.0167,0.0219,0.0312,0.0334,0.0377,0.0361,0.0352,0.0342,0.021,0.0154,0.0065,0.0046,0.0037,0.0092,0.0124,0.0108,0.0113,0.0118,0.0064,0.0064,0.0064,0.0064,0,-0.0137,-0.0109,-0.0086,-0.0013,0.0057,0.0118,0.0198,0.0206,0.0284,0.0344,0.0323,0.0315,0.0247,0.0188,0.0139,0.0049,0.0077,0.0039,0.0039,0.0091,0.0124,0.0109,0.0114,0.0064,0.0064,0.0064,0.0064,0,-0.0167,-0.0163,-0.0125,-0.0057,0.0017,0.0064,0.0108,0.0153,0.0196,0.0265,0.022,0.0205,0.0215,0.017,0.0072,0.0055,0.0071,0.0099,0.0097,0.0096,0.0135,0.0184,0.0122,0,0,0,0,0,-0.0192,-0.0196,-0.0161,-0.0095,-0.0026,0.0027,0.0086,0.0122,0.0176,0.0173,0.0225,0.0163,0.0139,0.0095,0.008,0.0048,0.0035,0.0032,0.0058,0.0066,0.0066,0.0109,0,0,0,0,0,0,-0.0211,-0.0202,-0.019,-0.013,-0.0085,-0.0014,0.0024,0.0058,0.0063,0.0122,0.0087,0.0178,0.0111,0.0142,0.0081,0.0075,0.0098,0.0036,0.0037,0.0066,0.0066,0.0066,0.011,0,0,0,0,0]},{"header":{"parameterUnit":"m.s-1","parameterCategory":2,"la1":30.2991,"la2":30.254,"lo1":-89.0895,"lo2":-89.0444,"dy":0.0017,"dx":0.0017,"nx":28,"ny":28,"refTime":"2025-05-21T03:00:00:Z","depth":"4","parameterNumber":3,"parameterNumberName":"V-component_of_CURRENTS"},"data":[0,0,0,0,0,0,0,0,0,0,0,0,0,0,0,0,0,0,0,0,0,0,0,0,0,0,0,0,0,0,0,0,0,0,0,0,0,0,0,0,0,0,0,0,0,0,0,0,0,0,0,0,0,0,0,0,0,0,0.009,0.009,0,0.006,0.0059,0.0058,0.0022,0.0022,0.0021,0.0021,-0.0064,-0.0066,-0.0068,0,0,0,0,0,0,0,0,0,0,0,0,0,0.0089,0.009,0.009,0.009,0.009,0.006,0.0059,0.0058,0.0022,0.0022,0.0021,0.0021,-0.0063,-0.0065,-0.0068,0,0,0,0,0,0,0,0,0,0,0,0,0,0.0075,0.009,0.009,0.0069,0.0067,0.006,0.0059,0.0058,0.0022,0.0022,0.0021,0.0021,-0.0062,-0.0065,-0.0068,-0.0075,0,0,-0.0077,-0.0078,0,0,0,0,0,0,0,0,0.0076,0.0075,0.0073,0.0071,0.0069,0.0046,0.0028,0.0012,0.0022,0.0037,0.0021,0.002,-0.003,-0.0036,-0.0043,-0.0079,-0.0082,-0.0077,-0.0079,-0.008,-0.0081,0,0,0,0,0,0,0,0.0077,0.0076,0.0076,0.0073,0.007,0.0053,0.005,0.0025,0.0004,0.0036,0.0034,0.0034,-0.0032,-0.004,-0.0045,-0.0084,-0.0077,-0.008,-0.0081,-0.0082,-0.0211,-0.0212,0,0,0,0,0,0,0.0088,0.0077,0.0077,0.0075,0.0074,0.0053,0.005,0.0052,0.0005,-0.0001,0.0034,0.0032,-0.0035,-0.0042,-0.0048,-0.0128,-0.008,-0.0083,-0.0084,-0.0209,-0.0211,-0.0213,0,0,0,0,0,0,0.0088,0.0088,0.0078,0.0077,0.0075,0.0054,0.0056,0.0052,0.0023,0.0005,-0.0003,0.0008,-0.0035,-0.0044,-0.0098,-0.0129,-0.0084,-0.0087,-0.0207,-0.021,-0.0212,-0.0243,0,0,0,0,0,0,0.0088,0.0088,0.0083,0.0078,0.0075,0.0055,0.0057,0.0052,0.0026,0.0023,-0.0019,-0.0026,-0.0036,-0.0094,-0.0101,-0.0132,-0.0089,-0.0205,-0.0208,-0.0211,-0.024,-0.0247,-0.0252,0,0,0,0,0,0.0088,0.0087,0.0083,0.0082,0.0072,0.0054,0.005,0.0033,0.0025,0.0005,-0.0027,-0.0026,-0.0119,-0.0098,-0.0106,-0.0138,-0.0203,-0.0207,-0.0211,-0.0238,-0.0246,-0.0252,0,0,0,0,0,0,0.0079,0.0083,0.0078,0.0077,0.0058,0.0048,0.0035,0.0021,-0.0018,-0.0029,-0.0047,-0.0057,-0.0118,-0.0125,-0.0101,-0.0186,-0.0162,-0.0167,-0.0179,-0.0187,-0.0193,-0.0177,-0.0091,0,0,0,0,0,0.0078,0.0078,0.0071,0.0065,0.0059,0.0042,0.003,0.0013,-0.0014,-0.0032,-0.0065,-0.01,-0.0136,-0.0159,-0.0193,-0.0235,-0.0226,-0.0263,-0.0269,-0.0274,-0.0268,-0.0289,-0.0296,-0.0225,-0.0225,-0.0225,0,0,0.0072,0.0075,0.0073,0.0062,0.0051,0.0033,0.0032,0.0005,-0.0023,-0.0035,-0.0095,-0.0127,-0.0154,-0.0208,-0.0235,-0.0219,-0.0289,-0.0279,-0.0283,-0.0274,-0.0293,-0.03,-0.0306,-0.0228,-0.0227,-0.0227,0,0,0.0065,0.0064,0.0061,0.0046,0.0026,0.0013,0.0,-0.0031,-0.0058,-0.0114,-0.0133,-0.0181,-0.0238,-0.0262,-0.0278,-0.0337,-0.0323,-0.0356,-0.037,-0.0391,-0.0396,-0.0401,-0.0388,-0.0391,-0.0354,-0.0355,-0.0355,0,0.0056,0.0056,0.0052,0.0041,0.003,0.0002,-0.0017,-0.0048,-0.0102,-0.0125,-0.0141,-0.0232,-0.026,-0.0309,-0.0334,-0.0349,-0.0347,-0.0338,-0.0397,-0.0401,-0.0405,-0.0391,-0.0394,-0.0356,-0.0356,-0.0356,-0.0356,0,0.0047,0.004,0.0036,0.0018,-0.0003,-0.0024,-0.0058,-0.01,-0.0138,-0.0168,-0.0241,-0.0285,-0.0329,-0.0357,-0.0364,-0.0414,-0.0398,-0.0403,-0.0372,-0.0414,-0.0397,-0.0399,-0.0359,-0.0359,-0.0358,-0.0358,0,0,0.0044,0.0035,0.0029,0.0025,-0.0016,-0.0029,-0.0082,-0.0126,-0.0154,-0.0228,-0.0266,-0.0344,-0.0365,-0.0385,-0.0409,-0.0434,-0.0465,-0.0433,-0.0433,-0.0407,-0.049,-0.0437,-0.0434,-0.0483,-0.0484,-0.0485,-0.0462,0,0.0036,0.0029,0.0015,-0.001,-0.0015,-0.0054,-0.0093,-0.0143,-0.0192,-0.0241,-0.0298,-0.0346,-0.0375,-0.0396,-0.0433,-0.0463,-0.0475,-0.0468,-0.0463,-0.0462,-0.0401,-0.0437,-0.0488,-0.0463,-0.0464,-0.0464,-0.0465,0,0.0026,0.003,0.0013,-0.0003,-0.0011,-0.0041,-0.0093,-0.0131,-0.0202,-0.0237,-0.0298,-0.0338,-0.0398,-0.041,-0.0473,-0.047,-0.0478,-0.0495,-0.0495,-0.0434,-0.0415,-0.0417,-0.0469,-0.0468,-0.0468,-0.0468,-0.0468,0,0.0037,0.0024,0.0016,0.0008,-0.0021,-0.0045,-0.0072,-0.0136,-0.0156,-0.023,-0.0246,-0.0333,-0.0361,-0.0413,-0.045,-0.0467,-0.0496,-0.052,-0.0472,-0.0467,-0.0504,-0.0499,-0.0544,-0.0544,-0.0544,-0.0544,-0.0544,0,0.0036,0.0029,0.0023,0.002,0.0007,-0.0025,-0.0055,-0.0095,-0.0139,-0.0156,-0.0234,-0.0263,-0.0365,-0.0396,-0.0439,-0.0453,-0.0483,-0.0472,-0.0465,-0.0517,-0.0515,-0.0504,-0.05,-0.0543,-0.0543,-0.0543,-0.0543,0,0.0036,0.0032,0.0032,0.0018,0.0011,-0.0001,-0.0025,-0.0039,-0.0082,-0.0104,-0.012,-0.0208,-0.0261,-0.0321,-0.0392,-0.0415,-0.0445,-0.0429,-0.0449,-0.0443,-0.0406,-0.0404,-0.04,-0.0398,-0.0397,-0.0395,-0.0394,0,0.0033,0.0037,0.0039,0.0045,0.0034,0.0021,0.0015,-0.0018,-0.0021,-0.007,-0.0071,-0.0129,-0.0186,-0.0246,-0.032,-0.0369,-0.0374,-0.0374,-0.0433,-0.0401,-0.0395,-0.0395,-0.0395,-0.0392,-0.0391,-0.0391,-0.0391,0,0.0039,0.0038,0.0042,0.0061,0.006,0.0067,0.006,0.0057,0.0026,0.0016,-0.0038,-0.0097,-0.0141,-0.0236,-0.0247,-0.0293,-0.0384,-0.0359,-0.0364,-0.0418,-0.0391,-0.0386,-0.0388,-0.0385,-0.0386,-0.0386,-0.0387,0,0.0038,0.0046,0.006,0.0069,0.0087,0.009,0.008,0.0072,0.0062,0.0018,0.0001,-0.0077,-0.0129,-0.0191,-0.0216,-0.0243,-0.0274,-0.0298,-0.0307,-0.0313,-0.0301,-0.0255,-0.0199,0,0,0,0,0,0.004,0.005,0.0069,0.0074,0.0097,0.0105,0.0108,0.0098,0.008,0.0055,0.0027,-0.0019,-0.0097,-0.015,-0.017,-0.019,-0.0271,-0.0213,-0.0301,-0.0354,-0.0361,-0.0358,0,0,0,0,0,0,0.004,0.0058,0.0069,0.0085,0.0092,0.0109,0.0108,0.0091,0.0073,0.0048,0.0,-0.0009,-0.0089,-0.008,-0.0167,-0.0177,-0.0233,-0.0244,-0.0244,-0.0351,-0.0357,-0.0362,-0.0361,0,0,0,0,0]}]]